Retour au catalogue

HULIANWANG DIGUI-130

ActifCommunicationsLEO
NORAD 67238·PAYLOAD·🇨🇳 China

Lancé Dec 25, 2025 depuis Wenchang Space Launch Site

Loading…

Prochains Passages (prochaines 24 heures)

TLE

FraisSource: Space-Track

Époque: Sep 14, 2026, 02:34 UTC

1 67238U 25311C   26257.10752810 -.00000075  00000-0  10491-3 0  9995
2 67238  50.0048 157.1068 0000291 300.2503  59.8340 13.29326882 35166

Suivez HULIANWANG DIGUI-130 en temps réel avec AllMySat

Download on the App Store